When you browse on this site, cookies collect data to enhance your experience and personalize the content and advertising you see.
Visit our Privacy Policy to learn more. By continuing to use the site, you agree to this use of cookies and data.
  • In Belgium
  • List of Countries
  • For 7 days
  • Water Temperature
  • Satellite Maps
  • Weather Map
  • Weather Widgets
  • user-avatar
    Login

    Hourly Weather Tuzla

    Today, 19 April, Friday

    Time Temperature Precipitation Wind Pressure Humidity
    00:00 +7°C° 0 mm 1 mps 729 mmHg 90%
    01:00 +7°C° 0 mm 1 mps 729 mmHg 91%
    02:00 +7°C° 0 mm 1 mps 729 mmHg 91%
    03:00 +6°C° 0 mm 1 mps 729 mmHg 91%
    04:00 +6°C° 0 mm 1 mps 729 mmHg 91%
    05:00 +8°C° 0 mm 1 mps 730 mmHg 87%
    06:00 +8°C° 0 mm 0 mps 730 mmHg 82%
    07:00 +10°C° 0 mm 0 mps 730 mmHg 77%
    08:00 +12°C° 0 mm 1 mps 730 mmHg 72%
    09:00 +14°C° 0 mm 1 mps 730 mmHg 67%
    10:00 +15°C° 0 mm 2 mps 730 mmHg 61%
    11:00 +16°C° 0.1 mm 2 mps 730 mmHg 59%
    12:00 +16°C° 0.1 mm 3 mps 730 mmHg 56%
    13:00 +17°C° 0.1 mm 3 mps 730 mmHg 54%
    14:00 +17°C° 0.1 mm 3 mps 730 mmHg 56%
    15:00 +17°C° 0.1 mm 3 mps 729 mmHg 58%
    16:00 +16°C° 0.1 mm 3 mps 729 mmHg 59%
    17:00 +15°C° 0 mm 2 mps 729 mmHg 67%
    18:00 +13°C° 0 mm 1 mps 729 mmHg 75%
    19:00 +11°C° 0 mm 1 mps 729 mmHg 83%
    20:00 +11°C° 0 mm 1 mps 729 mmHg 82%
    21:00 +11°C° 0 mm 1 mps 729 mmHg 81%
    22:00 +11°C° 0 mm 1 mps 729 mmHg 80%
    23:00 +10°C° 0 mm 1 mps 729 mmHg 81%

    Tomorrow, 20 April, Saturday

    Time Temperature Precipitation Wind Pressure Humidity
    00:00 +10°C° 0 mm 1 mps 729 mmHg 82%
    01:00 +10°C° 0 mm 1 mps 729 mmHg 83%
    02:00 +9°C° 0 mm 1 mps 729 mmHg 85%
    03:00 +8°C° 0 mm 1 mps 729 mmHg 88%
    04:00 +8°C° 0 mm 1 mps 729 mmHg 90%
    05:00 +9°C° 0 mm 1 mps 729 mmHg 86%
    06:00 +10°C° 0 mm 1 mps 729 mmHg 82%
    07:00 +11°C° 0 mm 1 mps 729 mmHg 78%
    08:00 +12°C° 0 mm 2 mps 729 mmHg 67%
    09:00 +14°C° 0 mm 2 mps 729 mmHg 55%
    10:00 +14°C° 0 mm 3 mps 729 mmHg 44%
    11:00 +14°C° 0 mm 3 mps 729 mmHg 43%
    12:00 +16°C° 0 mm 3 mps 729 mmHg 42%
    13:00 +16°C° 0 mm 3 mps 729 mmHg 40%
    14:00 +16°C° 0 mm 3 mps 729 mmHg 42%
    15:00 +16°C° 0 mm 3 mps 728 mmHg 44%
    16:00 +16°C° 0 mm 3 mps 728 mmHg 46%
    17:00 +14°C° 0 mm 2 mps 728 mmHg 54%
    18:00 +12°C° 0 mm 1 mps 728 mmHg 62%
    19:00 +9°C° 0 mm 0 mps 728 mmHg 70%
    20:00 +8°C° 0 mm 0 mps 728 mmHg 72%
    21:00 +8°C° 0 mm 0 mps 728 mmHg 74%
    22:00 +7°C° 0 mm 0 mps 728 mmHg 75%
    23:00 +8°C° 0 mm 1 mps 728 mmHg 76%

    Day after tomorrow, 21 April, Sunday

    Time Temperature Precipitation Wind Pressure Humidity
    00:00 +7°C° 0 mm 1 mps 728 mmHg 77%
    01:00 +7°C° 0 mm 1 mps 728 mmHg 78%
    02:00 +7°C° 0 mm 1 mps 728 mmHg 79%
    03:00 +6°C° 0 mm 1 mps 727 mmHg 80%
    04:00 +6°C° 0 mm 1 mps 727 mmHg 81%
    05:00 +8°C° 0 mm 1 mps 727 mmHg 76%
    06:00 +9°C° 0 mm 1 mps 727 mmHg 70%
    07:00 +11°C° 0 mm 1 mps 727 mmHg 65%
    08:00 +13°C° 0 mm 1 mps 727 mmHg 56%
    09:00 +16°C° 0 mm 1 mps 727 mmHg 47%
    10:00 +20°C° 0 mm 1 mps 727 mmHg 38%
    11:00 +20°C° 0 mm 1 mps 727 mmHg 35%
    12:00 +21°C° 0 mm 1 mps 727 mmHg 32%
    13:00 +22°C° 0 mm 1 mps 726 mmHg 30%
    14:00 +22°C° 0 mm 1 mps 726 mmHg 31%
    15:00 +21°C° 0 mm 1 mps 725 mmHg 33%
    16:00 +19°C° 0 mm 2 mps 725 mmHg 35%
    17:00 +18°C° 0 mm 1 mps 724 mmHg 45%
    18:00 +14°C° 0 mm 1 mps 724 mmHg 56%
    19:00 +12°C° 0 mm 1 mps 724 mmHg 66%
    20:00 +11°C° 0 mm 1 mps 724 mmHg 68%
    21:00 +11°C° 0 mm 1 mps 724 mmHg 70%
    22:00 +10°C° 0 mm 1 mps 724 mmHg 72%
    23:00 +10°C° 0 mm 1 mps 724 mmHg 75%

    22 April, Monday

    Time Temperature Precipitation Wind Pressure Humidity
    00:00 +9°C° 0 mm 1 mps 724 mmHg 78%
    01:00 +8°C° 0 mm 2 mps 723 mmHg 82%
    02:00 +8°C° 0 mm 2 mps 723 mmHg 85%
    03:00 +8°C° 0 mm 2 mps 723 mmHg 87%
    04:00 +7°C° 0 mm 2 mps 722 mmHg 90%
    05:00 +9°C° 0 mm 2 mps 722 mmHg 85%
    06:00 +11°C° 0 mm 1 mps 722 mmHg 79%
    07:00 +13°C° 0 mm 1 mps 722 mmHg 74%
    08:00 +15°C° 0 mm 1 mps 722 mmHg 63%
    09:00 +17°C° 0 mm 2 mps 722 mmHg 52%
    10:00 +19°C° 0 mm 2 mps 722 mmHg 40%
    11:00 +20°C° 0 mm 2 mps 722 mmHg 38%
    12:00 +21°C° 0 mm 2 mps 721 mmHg 35%
    13:00 +22°C° 0 mm 3 mps 721 mmHg 33%
    14:00 +20°C° 0 mm 3 mps 721 mmHg 40%
    15:00 +19°C° 0 mm 2 mps 720 mmHg 47%
    16:00 +18°C° 0 mm 2 mps 719 mmHg 54%
    17:00 +17°C° 0 mm 2 mps 719 mmHg 59%
    18:00 +15°C° 0 mm 2 mps 719 mmHg 63%
    19:00 +14°C° 0 mm 2 mps 718 mmHg 68%
    20:00 +14°C° 0 mm 2 mps 718 mmHg 68%
    21:00 +13°C° 0 mm 2 mps 718 mmHg 69%
    22:00 +13°C° 0 mm 2 mps 718 mmHg 69%
    23:00 +12°C° 0.6 mm 2 mps 718 mmHg 76%

    23 April, Tuesday

    Time Temperature Precipitation Wind Pressure Humidity
    00:00 +12°C° 0.6 mm 2 mps 718 mmHg 84%
    01:00 +10°C° 0.6 mm 2 mps 718 mmHg 91%
    02:00 +10°C° 0 mm 2 mps 718 mmHg 92%
    03:00 +9°C° 0 mm 2 mps 717 mmHg 92%
    04:00 +9°C° 0 mm 2 mps 717 mmHg 93%
    05:00 +10°C° 0 mm 2 mps 717 mmHg 89%
    06:00 +11°C° 0 mm 3 mps 717 mmHg 85%
    07:00 +13°C° 0 mm 3 mps 717 mmHg 81%
    08:00 +15°C° 0 mm 4 mps 717 mmHg 70%
    09:00 +17°C° 0 mm 5 mps 718 mmHg 59%
    10:00 +20°C° 0 mm 5 mps 718 mmHg 48%
    11:00 +20°C° 0 mm 5 mps 718 mmHg 49%
    12:00 +20°C° 0 mm 5 mps 718 mmHg 50%
    13:00 +20°C° 0 mm 5 mps 718 mmHg 51%
    14:00 +19°C° 0 mm 4 mps 718 mmHg 56%
    15:00 +18°C° 0 mm 4 mps 717 mmHg 60%
    16:00 +17°C° 0 mm 3 mps 717 mmHg 64%
    17:00 +17°C° 0 mm 3 mps 718 mmHg 67%
    18:00 +16°C° 0 mm 3 mps 718 mmHg 69%
    19:00 +14°C° 0 mm 3 mps 718 mmHg 71%
    20:00 +15°C° 0 mm 2 mps 719 mmHg 74%
    21:00 +14°C° 0 mm 2 mps 719 mmHg 76%
    22:00 +14°C° 0 mm 2 mps 720 mmHg 78%
    23:00 +13°C° 0 mm 2 mps 720 mmHg 80%

    24 April, Wednesday

    Time Temperature Precipitation Wind Pressure Humidity
    00:00 +13°C° 0 mm 2 mps 720 mmHg 82%
    01:00 +13°C° 0 mm 1 mps 720 mmHg 84%
    02:00 +12°C° 0 mm 1 mps 720 mmHg 86%
    03:00 +12°C° 0 mm 1 mps 720 mmHg 88%
    04:00 +12°C° 0 mm 1 mps 720 mmHg 90%
    05:00 +13°C° 0 mm 2 mps 721 mmHg 86%
    06:00 +15°C° 0 mm 2 mps 721 mmHg 81%
    07:00 +16°C° 0 mm 2 mps 722 mmHg 76%
    08:00 +18°C° 0 mm 2 mps 722 mmHg 68%
    09:00 +19°C° 0 mm 2 mps 722 mmHg 60%
    10:00 +21°C° 0 mm 2 mps 723 mmHg 52%
    11:00 +21°C° 0.1 mm 2 mps 723 mmHg 52%
    12:00 +23°C° 0.1 mm 2 mps 723 mmHg 52%
    13:00 +23°C° 0.1 mm 1 mps 723 mmHg 53%
    14:00 +23°C° 0.3 mm 1 mps 723 mmHg 53%
    15:00 +23°C° 0.3 mm 1 mps 723 mmHg 54%
    16:00 +23°C° 0.3 mm 1 mps 722 mmHg 55%
    17:00 +21°C° 0 mm 1 mps 722 mmHg 62%
    18:00 +19°C° 0 mm 1 mps 722 mmHg 70%
    19:00 +16°C° 0 mm 1 mps 722 mmHg 78%
    20:00 +15°C° 0 mm 1 mps 722 mmHg 80%
    21:00 +14°C° 0 mm 1 mps 722 mmHg 83%
    22:00 +14°C° 0 mm 2 mps 723 mmHg 85%
    23:00 +13°C° 0 mm 2 mps 723 mmHg 86%
    Show more